Gene Autry, OK

2:50 AM CST on February 14, 2016 (GMT -0600)
Ardmore Municipal

Weather History for KADM - November, 2012

Change the Weather History Date:

Wednesday, November 28, 2012

  Actual Average Record
Temperature  
Mean Temperature 45 °F -  
Max Temperature 64 °F 57 °F 78 °F (1998)
Min Temperature 26 °F 39 °F 21 °F (2013)
Degree Days  
Heating Degree Days 20    
Moisture  
Dew Point 32 °F    
Average Humidity 86    
Maximum Humidity 100    
Minimum Humidity 42    
Precipitation  
Precipitation 0.00 in - - ()
Sea Level Pressure  
Sea Level Pressure 30.34 in    
Wind  
Wind Speed 2 mph (ESE)    
Max Wind Speed 16 mph    
Max Gust Speed 21 mph    
Visibility 9 miles    
Events Fog    
Averages and records for this station are not official NWS values.
T = Trace of Precipitation, MM = Missing Value Source: NWS Daily Summary

Daily Weather History Graph

Daily Weather History Graph

Search for Another Location

Airport or City:

Trip Planner

Search our weather history database for the weather conditions in past years. The results will help you decide how hot, cold, wet, or windy it might be!

Date:

Astronomy

Nov. 28, 2012 Rise Set
Actual Time 7:13 AM CST 5:18 PM CST
Civil Twilight 6:46 AM CST 5:45 PM CST
Nautical Twilight 6:15 AM CST 6:16 PM CST
Astronomical Twilight 5:45 AM CST 6:47 PM CST
Moon 5:34 PM CST (11/28) 7:12 AM CST (11/28)
Length of Visible Light 10h 59m
Length of Day
10h 04m
Full, 100% of the Moon is Illuminated
Nov 28
Full
Dec 6
Last Quarter
Dec 13
New
Dec 19
First Quarter
Dec 28
Full

Hourly Weather History & Observations

Time (CST) Temp. Windchill Dew Point Humidity Pressure Visibility Wind Dir Wind Speed Gust Speed Precip Events Conditions
12:15 AM 30.2 °F - 30.2 °F 100% 30.36 in 10.0 mi Calm Calm - N/A   Clear
12:35 AM 30.2 °F - 30.2 °F 100% 30.36 in 10.0 mi Calm Calm - N/A   Clear
1:15 AM 30.2 °F - 30.2 °F 100% 30.36 in 10.0 mi Calm Calm - N/A   Clear
1:35 AM 30.2 °F - 28.4 °F 93% 30.35 in 10.0 mi Calm Calm - N/A   Clear
1:55 AM 30.2 °F - 28.4 °F 93% 30.35 in 10.0 mi Calm Calm - N/A   Clear
2:15 AM 30.2 °F - 30.2 °F 100% 30.35 in 7.0 mi Calm Calm - N/A   Clear
2:35 AM 28.4 °F - 28.4 °F 100% 30.35 in 7.0 mi Calm Calm - N/A   Clear
2:55 AM 30.2 °F - 28.4 °F 93% 30.35 in 10.0 mi Calm Calm - N/A   Clear
3:15 AM 28.4 °F - 28.4 °F 100% 30.36 in 7.0 mi Calm Calm - N/A   Clear
3:35 AM 28.4 °F - 28.4 °F 100% 30.35 in 10.0 mi Calm Calm - N/A   Clear
3:55 AM 28.4 °F - 28.4 °F 100% 30.35 in 7.0 mi Calm Calm - N/A   Clear
4:15 AM 28.4 °F - 28.4 °F 100% 30.34 in 10.0 mi Calm Calm - N/A   Clear
4:35 AM 28.4 °F - 26.6 °F 93% 30.34 in 10.0 mi Calm Calm - N/A   Clear
4:55 AM 28.4 °F - 26.6 °F 93% 30.34 in 10.0 mi Calm Calm - N/A   Clear
5:15 AM 28.4 °F - 28.4 °F 100% 30.35 in 10.0 mi Calm Calm - N/A   Clear
5:35 AM 28.4 °F - 28.4 °F 100% 30.35 in 10.0 mi Calm Calm - N/A   Clear
6:55 AM 26.6 °F - 26.6 °F 100% 30.38 in 10.0 mi Calm Calm - N/A   Clear
7:55 AM 26.6 °F - 26.6 °F 100% 30.40 in 10.0 mi Calm Calm - N/A   Clear
8:25 AM 26.6 °F - 26.6 °F 100% 30.40 in 0.5 mi Calm Calm - N/A Fog Fog
8:55 AM 37.4 °F - 35.6 °F 93% 30.41 in 7.0 mi Calm Calm - N/A   Scattered Clouds
9:55 AM 46.4 °F 42.4 °F 37.4 °F 71% 30.42 in 10.0 mi SE 8.1 mph - N/A   Clear
10:55 AM 53.6 °F - 41.0 °F 62% 30.41 in 10.0 mi SE 5.8 mph - N/A   Clear
11:55 AM 59.0 °F - 41.0 °F 51% 30.37 in 10.0 mi SSE 10.4 mph - N/A   Clear
12:55 PM 60.8 °F - 41.0 °F 48% 30.34 in 10.0 mi SE 16.1 mph 20.7 mph N/A   Clear
1:55 PM 64.4 °F - 41.0 °F 42% 30.30 in 10.0 mi SE 12.7 mph 17.3 mph N/A   Clear
10:35 PM 46.4 °F 42.9 °F 35.6 °F 66% 30.25 in 10.0 mi ESE 6.9 mph - N/A   Clear
10:55 PM 46.4 °F 42.9 °F 35.6 °F 66% 30.25 in 10.0 mi East 6.9 mph - N/A   Clear
11:15 PM 44.6 °F 40.7 °F 35.6 °F 71% 30.25 in 10.0 mi East 6.9 mph - N/A   Clear
11:35 PM 44.6 °F 40.7 °F 35.6 °F 71% 30.24 in 10.0 mi ESE 6.9 mph - N/A   Clear
11:55 PM 44.6 °F 40.7 °F 35.6 °F 71% 30.24 in 10.0 mi ESE 6.9 mph - N/A   Clear